Lid_Strength_Index
8 6 6 6 7 7 6 5 3 2 0 0 -1 -0 -0 -0 -0 -1 -1 0 -1 -1 -1 -1 -1 -1 -1 -1 -1 -1 -1 -1 -1 -1 -1 -1 -1 -1 -1 -2 -1 -2 -1
9 9 8 7 8 7 7 6 6 4 3 2 1 1 1 0 -0 -0 -0 -0 0 -1 -1 -1 -1 -1 -1 -1 -1 -1 -1 -1 -1 -1 -1 -1 -1 -1 -1 -1 -1 -1 -1
9 9 9 9 7 8 6 6 6 5 5 4 4 4 4 4 3 2 1 0 0 1 -0 -1 -1 -1 -1 -1 -1 -1 -1 -1 -1 -1 -1 -1 -1 -2 -1 -1 -1 -1 -2
9 9 10 10 9 8 7 7 8 5 5 6 7 6 6 6 7 6 4 3 3 1 0 -1 -1 -1 -1 -1 -1 -1 -1 -1 -1 -1 -1 -1 -1 -1 -1 -2 -1 -1 -1
10 9 10 10 10 10 9 9 8 8 7 6 6 7 8 7 8 8 8 7 5 3 2 0 0 -1 -1 -1 -1 -1 -1 -1 -1 -1 -1 -1 -1 -1 -1 -1 -1 -2 -2
10 10 10 10 10 9 10 9 8 9 9 8 8 8 8 8 8 8 8 7 7 6 4 -0 -0 1 1 -0 -1 -2 -1 -1 -1 -1 -1 -1 -1 -1 -1 -1 -1 -1 -1
10 9 10 10 10 10 11 11 10 9 10 10 9 9 8 8 10 10 10 10 9 7 5 4 2 1 3 2 1 -0 -2 -1 -1 -1 -1 -1 -2 -1 -2 -2 -1 -1 -2
10 10 10 10 11 11 11 11 11 11 11 11 10 10 11 9 8 10 11 11 10 8 8 6 7 6 5 4 5 3 1 -1 -2 -2 -1 -1 -1 -1 -1 -2 -1 -1 -1
10 10 10 10 11 11 12 12 12 12 12 12 11 10 12 12 11 10 11 11 11 11 10 9 8 8 8 8 8 6 4 2 0 -0 0 1 1 1 0 0 -0 -0 -0
9 9 10 10 10 10 11 11 12 11 11 12 12 11 12 12 12 12 11 12 11 12 11 10 10 10 10 9 9 8 7 5 3 2 2 2 2 3 3 2 2 1 1
10 10 10 10 10 10 10 10 11 12 12 11 12 12 12 12 13 13 13 13 12 12 12 12 11 11 12 12 12 10 9 7 6 5 4 4 4 4 4 4 3 3 3
11 11 11 11 10 10 10 10 9 11 12 12 12 12 13 13 13 13 13 13 14 13 13 13 12 12 11 12 13 12 11 9 8 7 6 6 7 7 6 6 5 5 5
12 12 11 11 12 11 11 11 10 10 11 11 11 12 12 13 13 13 14 14 14 14 14 13 13 12 12 12 13 13 12 11 10 9 9 8 8 8 8 7 7 7 6
12 12 12 11 11 11 11 11 11 11 11 11 11 12 13 14 13 14 14 14 15 15 14 14 13 14 13 14 13 12 13 12 12 11 10 10 10 10 10 9 9 8 8
12 12 12 12 12 12 11 11 12 12 12 12 12 11 12 13 14 13 13 13 14 15 15 14 14 13 13 13 14 14 14 13 13 13 12 12 11 11 11 10 10 10 9
12 12 13 13 12 12 12 12 12 12 12 12 12 12 12 12 13 13 14 14 13 14 16 14 13 13 13 13 14 14 14 13 13 13 13 13 12 12 11 11 11 10 10
12 12 12 13 13 13 12 12 12 12 12 13 12 13 13 12 13 13 12 13 13 14 15 15 14 13 14 15 15 14 13 14 14 14 13 13 12 12 12 11 11 11 11
12 12 12 12 12 13 13 13 14 13 13 13 13 13 13 13 13 13 13 13 13 13 14 14 14 15 15 14 15 15 14 14 15 14 13 12 12 12 12 12 12 12 12
12 12 12 13 13 13 13 13 13 13 14 13 13 13 13 13 13 13 13 13 13 13 13 14 14 13 13 14 14 13 14 14 14 13 13 13 13 12 12 12 12 12 12
12 12 12 13 13 13 13 13 13 13 13 13 12 12 12 13 13 13 12 13 13 13 13 13 13 13 13 12 13 14 15 13 14 13 12 13 12 12 12 12 13 13 13
12 12 12 12 13 13 13 13 13 13 13 13 13 13 12 12 12 12 12 12 12 13 13 14 14 13 14 14 15 14 14 14 13 12 13 13 14 13 13 12 12 12 12
13 13 13 13 13 12 13 13 13 12 13 13 13 12 12 13 12 12 11 11 11 12 13 13 14 14 14 14 14 14 15 15 16 12 15 15 14 13 13 13 12 12 12
14 14 14 13 13 12 12 12 12 12 12 12 12 12 12 12 12 11 12 12 11 11 12 13 14 14 14 14 14 14 14 15 15 14 15 16 13 14 13 13 13 13 12
14 14 14 14 13 13 12 12 11 12 12 11 11 11 12 12 12 12 12 12 12 12 11 12 12 12 12 12 12 13 14 15 14 14 14 17 15 15 14 14 12 12 12
14 14 14 15 15 14 13 12 12 12 11 11 11 11 11 12 11 12 13 13 13 12 11 11 11 12 12 12 12 13 15 15 16 16 15 16 16 17 16 16 14 12 12
15 15 15 15 15 15 14 13 12 13 13 12 11 11 10 11 10 11 12 12 13 13 13 13 13 12 12 13 13 14 15 16 17 17 15 17 17 17 18 16 15 15 15